Weather History for Paraburdoo Airport, WA

Change the Weather History Date:

Saturday, February 15, 2014

  Actual Average Record
Temperature  
Mean Temperature 88 °F -  
Max Temperature 102 °F - - ()
Min Temperature 75 °F - - ()
Cooling Degree Days 24    
Growing Degree Days 38 (Base 50)    
Moisture  
Dew Point 53 °F    
Average Humidity 34    
Maximum Humidity 61    
Minimum Humidity 16    
Precipitation  
Precipitation 0.00 in - - ()
Sea Level Pressure  
Sea Level Pressure 29.74 in    
Wind  
Wind Speed 4 mph ()    
Max Wind Speed 9 mph    
Max Gust Speed -    
Visibility 6.2 miles    
Events      
T = Trace of Precipitation, MM = Missing Value Source: Averaged Metar Reports

Daily Weather History Graph

Daily Weather History Graph

Search for Another Location

Airport:

Trip Planner

Search our weather history database for the weather conditions in past years. The results will help you decide how hot, cold, wet, or windy it might be!

Date:

Astronomy

Feb. 15, 2014 Rise Set
Actual Time 5:57 AM AWST 6:48 PM AWST
Civil Twilight 5:33 AM AWST 7:12 PM AWST
Nautical Twilight 5:06 AM AWST 7:39 PM AWST
Astronomical Twilight 4:38 AM AWST 8:07 PM AWST
Moon 6:47 PM AWST (2/15) 5:57 AM AWST (2/15)
Length of Visible Light 13h 38m
Length of Day
12h 51m
Full, 100% of the Moon is Illuminated
Feb 15
Full
Feb 23
Last Quarter
Mar 1
New
Mar 8
First Quarter
Mar 17
Full

Hourly Weather History & Observations

Time (AWST) Temp. Heat Index Dew Point Humidity Pressure Visibility Wind Dir Wind Speed Gust Speed Precip Events Conditions
12:00 AM 78.8 °F - 51.8 °F 39% 29.74 in 6.2 mi Calm Calm - N/A   Unknown
1:00 AM 77.0 °F - 53.6 °F 44% 29.71 in 6.2 mi NNW 1.2 mph - N/A   Unknown
2:00 AM 77.0 °F - 53.6 °F 44% 29.71 in 6.2 mi South 4.6 mph - N/A   Unknown
3:00 AM 75.2 °F - 53.6 °F 47% 29.71 in 6.2 mi WNW 1.2 mph - N/A   Unknown
4:00 AM 75.2 °F - 55.4 °F 50% 29.71 in 6.2 mi SSW 3.5 mph - N/A   Unknown
5:00 AM 75.2 °F - 57.2 °F 53% 29.74 in 6.2 mi SSW 2.3 mph - N/A   Unknown
6:00 AM 75.2 °F - 59.0 °F 57% 29.77 in 6.2 mi WNW 5.8 mph - N/A   Unknown
7:00 AM 77.0 °F - 62.6 °F 61% 29.80 in 6.2 mi West 4.6 mph - N/A   Unknown
8:00 AM 78.8 °F - 64.4 °F 61% 29.80 in 6.2 mi West 5.8 mph - N/A   Unknown
9:00 AM 82.4 °F 83.4 °F 62.6 °F 51% 29.80 in 6.2 mi SW 4.6 mph - N/A   Unknown
10:00 AM 87.8 °F 87.6 °F 60.8 °F 40% 29.80 in 6.2 mi NNE 4.6 mph - N/A   Unknown
11:00 AM 91.4 °F 90.7 °F 59.0 °F 34% 29.77 in 6.2 mi North 4.6 mph - N/A   Unknown
12:00 PM 96.8 °F - 46.4 °F 18% 29.74 in 6.2 mi West 9.2 mph - N/A   Unknown
1:00 PM 96.8 °F - 50.0 °F 20% 29.71 in 6.2 mi NNW 9.2 mph - N/A   Unknown
2:00 PM 98.6 °F - 48.2 °F 18% 29.71 in 6.2 mi North 5.8 mph - N/A   Unknown
3:00 PM 96.8 °F - 48.2 °F 19% 29.68 in 6.2 mi ENE 8.1 mph - N/A   Unknown
4:00 PM 98.6 °F - 50.0 °F 19% 29.68 in 6.2 mi ESE 6.9 mph - N/A   Unknown
5:00 PM 102.2 °F - 48.2 °F 16% 29.68 in 6.2 mi East 4.6 mph - N/A   Unknown
6:00 PM 100.4 °F - 48.2 °F 17% 29.68 in 6.2 mi NE 3.5 mph - N/A   Unknown
7:00 PM 96.8 °F - 44.6 °F 17% 29.71 in 6.2 mi WSW 8.1 mph - N/A   Unknown
8:00 PM 95.0 °F - 46.4 °F 19% 29.71 in 6.2 mi WSW 5.8 mph - N/A   Unknown
9:00 PM 93.2 °F - 48.2 °F 21% 29.74 in 6.2 mi WSW 5.8 mph - N/A   Unknown
10:00 PM 89.6 °F - 50.0 °F 26% 29.77 in 6.2 mi WNW 4.6 mph - N/A   Unknown
11:00 PM 87.8 °F - 50.0 °F 27% 29.77 in 6.2 mi WNW 6.9 mph - N/A   Unknown